OBJECT R, 61750

Orbit data source: Space-Track

You're viewing an Uncataloged Satellite

Recently launched and/or uncataloged satellites may have evolving metadata. Metadata may include but not limited to: Owner, Maufacturer, Bus, Motor, and Mission.

OBJECT R, 61750 is a satellite in SSO that was launched on Mon, 04 Nov 2024 UTC via a SOYUZ-2-1B launch vehicle from the Vostochny Cosmodrome (VOSTO). Unknown objects in Earth's orbit typically refer to objects detected orbiting the Earth but have not yet been identified or cataloged. These objects could be anything from previously untracked satellites, spent rocket stages, debris from satellite collisions, or even natural meteoroids temporarily captured by Earth's gravity.

Loading next visibility...
Identifier
61750, 2024-199R
Orbit
SSO
Country
Flag of TBDTBD
Related business
None
Manufacturer
Unknown
Mission
Operational Commercial Technology
Bus & Motor
Unknown
Mass
Unknown
Launch date (UTC)
2024-11-04 (2 years ago)
Launch vehicle
SOYUZ-2-1B
Launch site
Vostochny Cosmodrome (VOSTO)
Object type
Unknown
Shape & HBR
Box, 0.1 m
Radar Cross Section
0.045 m², Medium (>0.1 m² and < 1m²)

Expand to show TLE details & history
Last TLE update: 11 hours ago

TLE from 11 hours ago
0 OBJECT R
1 61750U 24199R   26145.61056710  .00034426  00000-0  54358-3 0  9995
2 61750  97.2998  20.8744 0007032  27.9279 332.2351 15.53406617134047
Epoch: 2026-05-25T14:39Z
TLE epoch observation values (Epoch: 2026-05-25T14:39:12.997Z)
Latitude
0.00002°
Longitude
-82.12564°
Altitude
405.705 km
Speed
7.67 km/s
True Right ascension
01h 23m 29s
True Declination
0° 00' 00"
Sunlit
Object was in daylight at epoch
Visualization orbit readout
Latitude
Unknown
Longitude
Unknown
Altitude
Unknown
Speed
Unknown
Apparent Right ascension
Unknown
Apparent Declination
Unknown
Sunlit
N/A
Visualization observer readout
Local Sidereal Time
10:50:16
Azimuth
Unknown
Elevation
Unknown
Doppler factor
Unknown
Orbital elements
Apogee altitude
408.474 km
Perigee altitude
398.936 km
Semi-major axis
6,781.842 km
Eccentricity
0.0007
Inclination
97.2998°
RAAN
20.8744°
Arg. of periapsis
27.9279°
True anomaly
332.19753°
Mean anomaly
332.2351°
Eccentric anomaly
332.21632°
Mean motion
3.88617 °/min
Orbital period
92.64 mins
BSTAR
0.00054358
Loading maneuver chart data...
Computing Atmospheric mass density...
Loading historical data...
Loading historical data...
Loading historical data...
Loading historical data...
Loading historical data...
Loading historical data...
Loading historical data...

Documentation

Showing up to 5 results
|